,,PA_Meas_PMT16A,,PR_Meas_QMR101_102,,RH_Meas_QMH101,,SR_Meas_QMS101,,TA_Meas_QMH101,,GenWind,,GenWind,
time,status,PA,status,PR,status,RH,status,SR,status,TA,status,DirAvg,status,SpdAvg,
2010-12-31, 00:00:04,VALID,915.99,VALID,0,VALID,93.6308,VALID,0,VALID,20.2668,VALID,28,VALID,0,
2010-12-31, 00:01:04,VALID,915.98,VALID,0,VALID,93.6613,VALID,0,VALID,20.2668,VALID,28,VALID,0,
2010-12-31, 00:02:04,VALID,915.966,VALID,0,VALID,93.5317,VALID,0,VALID,20.3058,VALID,28,VALID,0,
2010-12-31, 00:03:04,VALID,915.975,VALID,0,VALID,93.3106,VALID,0,VALID,20.3464,VALID,28,VALID,0,
2010-12-31, 00:04:04,VALID,915.927,VALID,0,VALID,93.181,VALID,0,VALID,20.3854,VALID,28,VALID,0,
2010-12-31, 00:05:04,VALID,915.924,VALID,0,VALID,92.9371,VALID,0,VALID,20.4049,VALID,28,VALID,0,
2010-12-31, 00:06:04,VALID,915.924,VALID,0,VALID,92.777,VALID,0,VALID,20.4228,VALID,28,VALID,0,
2010-12-31, 00:07:04,VALID,915.946,VALID,0,VALID,92.5559,VALID,0,VALID,20.4634,VALID,28,VALID,0,
2010-12-31, 00:08:04,VALID,915.903,VALID,0,VALID,92.4644,VALID,0,VALID,20.5024,VALID,28,VALID,0,
2010-12-31, 00:09:04,VALID,915.878,VALID,0,VALID,92.4187,VALID,0,VALID,20.5219,VALID,28,VALID,0,
2010-12-31, 00:10:04,VALID,915.874,VALID,0,VALID,92.1442,VALID,0,VALID,20.5609,VALID,28,VALID,0,
2010-12-31, 00:11:04,VALID,915.868,VALID,0,VALID,92.0223,VALID,0,VALID,20.5414,VALID,28,VALID,0,
2010-12-31, 00:12:04,VALID,915.854,VALID,0,VALID,92.0909,VALID,0,VALID,20.5219,VALID,28,VALID,0,
2010-12-31, 00:13:04,VALID,915.863,VALID,0,VALID,92.0832,VALID,0,VALID,20.4829,VALID,28,VALID,0,
2010-12-31, 00:14:04,VALID,915.846,VALID,0,VALID,92.068,VALID,0,VALID,20.4829,VALID,28,VALID,0,
2010-12-31, 00:15:04,VALID,915.866,VALID,0,VALID,92.1519,VALID,0,VALID,20.4634,VALID,28,VALID,0,
2010-12-31, 00:16:04,VALID,915.84,VALID,0,VALID,92.068,VALID,0,VALID,20.4423,VALID,28,VALID,0,
2010-12-31, 00:17:04,VALID,915.82,VALID,0,VALID,91.9994,VALID,0,VALID,20.4618,VALID,28,VALID,0,
2010-12-31, 00:18:04,VALID,915.802,VALID,0,VALID,91.8774,VALID,0,VALID,20.4618,VALID,28,VALID,0,
2010-12-31, 00:19:04,VALID,915.786,VALID,0,VALID,91.9613,VALID,0,VALID,20.4813,VALID,28,VALID,0,
2010-12-31, 00:20:04,VALID,915.769,VALID,0,VALID,92.1747,VALID,0,VALID,20.4618,VALID,28,VALID,0,
2010-12-31, 00:21:04,VALID,915.749,VALID,0,VALID,92.1519,VALID,0,VALID,20.4439,VALID,28,VALID,0,
2010-12-31, 00:22:04,VALID,915.718,VALID,0,VALID,92.5025,VALID,0,VALID,20.3838,VALID,28,VALID,0.734375,
2010-12-31, 00:23:04,VALID,915.727,VALID,0,VALID,93.059,VALID,0,VALID,20.3269,VALID,28,VALID,0.917188,
2010-12-31, 00:24:04,VALID,915.709,VALID,0,VALID,93.3182,VALID,0,VALID,20.2684,VALID,28,VALID,0.925391,
2010-12-31, 00:25:04,VALID,915.679,VALID,0,VALID,93.5088,VALID,0,VALID,20.2684,VALID,28,VALID,0.842969,
2010-12-31, 00:26:04,VALID,915.675,VALID,0,VALID,93.425,VALID,0,VALID,20.2473,VALID,28,VALID,0.571875,
2010-12-31, 00:27:04,VALID,915.711,VALID,0,VALID,93.4859,VALID,0,VALID,20.2489,VALID,28,VALID,0.769922,
2010-12-31, 00:28:04,VALID,915.692,VALID,0,VALID,93.6003,VALID,0,VALID,20.2293,VALID,28,VALID,0.600391,
2010-12-31, 00:29:04,VALID,915.669,VALID,0,VALID,93.6765,VALID,0,VALID,20.2083,VALID,28,VALID,0.6375,
2010-12-31, 00:30:04,VALID,915.7,VALID,0,VALID,93.8138,VALID,0.107441,VALID,20.2083,VALID,28,VALID,0.595312,
2010-12-31, 00:31:04,VALID,915.699,VALID,0,VALID,93.951,VALID,0,VALID,20.2083,VALID,28,VALID,0.465625,
2010-12-31, 00:32:04,VALID,915.684,VALID,0,VALID,93.9586,VALID,0,VALID,20.1873,VALID,28,VALID,0.336328,
2010-12-31, 00:33:04,VALID,915.715,VALID,0,VALID,93.951,VALID,0.107441,VALID,20.1678,VALID,28,VALID,0.471094,
2010-12-31, 00:34:04,VALID,915.7,VALID,0,VALID,94.1187,VALID,0.107441,VALID,20.2083,VALID,28,VALID,0.168359,
2010-12-31, 00:35:04,VALID,915.694,VALID,0,VALID,94.0882,VALID,0,VALID,20.1662,VALID,28,VALID,0.196875,
2010-12-31, 00:36:04,VALID,915.664,VALID,0,VALID,94.0348,VALID,0.107441,VALID,20.2083,VALID,28,VALID,0.0117188,
2010-12-31, 00:37:04,VALID,915.665,VALID,0,VALID,94.012,VALID,0,VALID,20.2083,VALID,28,VALID,0.269141,
2010-12-31, 00:38:04,VALID,915.655,VALID,0,VALID,93.9586,VALID,0,VALID,20.2083,VALID,28,VALID,0.342187,
2010-12-31, 00:39:04,VALID,915.663,VALID,0,VALID,93.9586,VALID,0.107441,VALID,20.1888,VALID,28,VALID,0.285937,
2010-12-31, 00:40:04,VALID,915.669,VALID,0,VALID,94.012,VALID,0.107441,VALID,20.1678,VALID,28,VALID,0.382031,
2010-12-31, 00:41:04,VALID,915.661,VALID,0,VALID,94.0272,VALID,0.107441,VALID,20.1483,VALID,28,VALID,0.423828,
2010-12-31, 00:42:04,VALID,915.67,VALID,0,VALID,93.9891,VALID,0,VALID,20.1498,VALID,28,VALID,0.156641,
2010-12-31, 00:43:04,VALID,915.665,VALID,0,VALID,93.9891,VALID,0.107441,VALID,20.1093,VALID,28,VALID,0.296875,
2010-12-31, 00:44:04,VALID,915.658,VALID,0,VALID,93.9815,VALID,0,VALID,20.1108,VALID,28,VALID,0.251172,
2010-12-31, 00:45:04,VALID,915.654,VALID,0,VALID,94.012,VALID,0,VALID,20.1334,VALID,28,VALID,0.268359,
2010-12-31, 00:46:04,VALID,915.622,VALID,0,VALID,93.9586,VALID,0,VALID,20.0313,VALID,28,VALID,0.607813,
2010-12-31, 00:47:04,VALID,915.634,VALID,0,VALID,93.9967,VALID,0,VALID,20.0538,VALID,28,VALID,0.644141,
2010-12-31, 00:48:04,VALID,915.622,VALID,0,VALID,93.951,VALID,0,VALID,20.0148,VALID,28,VALID,0.504297,
2010-12-31, 00:49:04,VALID,915.628,VALID,0,VALID,94.0577,VALID,0,VALID,19.9953,VALID,28,VALID,0.395312,
2010-12-31, 00:50:04,VALID,915.599,VALID,0,VALID,94.1416,VALID,0,VALID,19.9758,VALID,28,VALID,0.348047,
2010-12-31, 00:51:04,VALID,915.618,VALID,0,VALID,94.3245,VALID,0,VALID,20.0163,VALID,28,VALID,0.617969,
2010-12-31, 00:52:04,VALID,915.598,VALID,0,VALID,94.3855,VALID,0,VALID,19.9743,VALID,28,VALID,0.377734,
2010-12-31, 00:53:04,VALID,915.644,VALID,0,VALID,94.4846,VALID,0,VALID,19.9758,VALID,28,VALID,0.351563,
2010-12-31, 00:54:04,VALID,915.654,VALID,0,VALID,94.5151,VALID,0,VALID,19.9743,VALID,28,VALID,0.308594,
2010-12-31, 00:55:04,VALID,915.649,VALID,0,VALID,94.5837,VALID,0,VALID,20.0148,VALID,28,VALID,0.0941406,
2010-12-31, 00:56:04,VALID,915.645,VALID,0,VALID,94.4846,VALID,0,VALID,20.0148,VALID,28,VALID,0.0570313,
2010-12-31, 00:57:04,VALID,915.65,VALID,0,VALID,94.4617,VALID,0,VALID,20.0343,VALID,28,VALID,0,
2010-12-31, 00:58:04,VALID,915.643,VALID,0,VALID,94.294,VALID,0,VALID,20.0343,VALID,28,VALID,0,
2010-12-31, 00:59:04,VALID,915.611,VALID,0,VALID,94.2864,VALID,0,VALID,20.0538,VALID,28,VALID,0.142969,
2010-12-31, 01:00:04,VALID,915.587,VALID,0,VALID,94.2254,VALID,0,VALID,20.0538,VALID,28,VALID,0.359766,
2010-12-31, 01:01:04,VALID,915.58,VALID,0,VALID,94.1568,VALID,0,VALID,20.0133,VALID,28,VALID,0.314063,
2010-12-31, 01:02:04,VALID,915.552,VALID,0,VALID,93.9281,VALID,0,VALID,20.0358,VALID,28,VALID,0.410156,
2010-12-31, 01:03:04,VALID,915.518,VALID,0,VALID,94.0882,VALID,0,VALID,19.9968,VALID,28,VALID,0.704687,
2010-12-31, 01:04:04,VALID,915.557,VALID,0,VALID,94.0577,VALID,0,VALID,19.9563,VALID,28,VALID,0.510938,
2010-12-31, 01:05:04,VALID,915.549,VALID,0,VALID,94.073,VALID,0,VALID,19.9563,VALID,28,VALID,0.377734,
2010-12-31, 01:06:04,VALID,915.56,VALID,0,VALID,94.0272,VALID,0,VALID,19.9368,VALID,28,VALID,0.208203,
2010-12-31, 01:07:04,VALID,915.564,VALID,0,VALID,93.9967,VALID,0,VALID,19.9563,VALID,28,VALID,0,
2010-12-31, 01:08:04,VALID,915.537,VALID,0,VALID,93.8824,VALID,0,VALID,19.9563,VALID,28,VALID,0,
2010-12-31, 01:09:04,VALID,915.531,VALID,0,VALID,93.8138,VALID,0,VALID,19.9563,VALID,28,VALID,0,
2010-12-31, 01:10:04,VALID,915.498,VALID,0,VALID,93.707,VALID,0,VALID,19.9968,VALID,28,VALID,0.0375,
2010-12-31, 01:11:04,VALID,915.465,VALID,0,VALID,93.6308,VALID,0,VALID,19.9968,VALID,28,VALID,0.152734,
2010-12-31, 01:12:04,VALID,915.455,VALID,0,VALID,93.5164,VALID,0,VALID,19.9758,VALID,28,VALID,0,
2010-12-31, 01:13:04,VALID,915.432,VALID,0,VALID,93.4021,VALID,0,VALID,19.9968,VALID,28,VALID,0,
2010-12-31, 01:14:04,VALID,915.423,VALID,0,VALID,93.2801,VALID,0,VALID,19.9758,VALID,28,VALID,0.291406,
2010-12-31, 01:15:04,VALID,915.412,VALID,0,VALID,93.242,VALID,0,VALID,19.9743,VALID,28,VALID,0.580078,
2010-12-31, 01:16:04,VALID,915.411,VALID,0,VALID,93.242,VALID,0.107441,VALID,19.9743,VALID,28,VALID,0.341016,
2010-12-31, 01:17:04,VALID,915.393,VALID,0,VALID,93.2268,VALID,0,VALID,19.9938,VALID,28,VALID,0.239063,
2010-12-31, 01:18:04,VALID,915.375,VALID,0,VALID,93.1963,VALID,0,VALID,20.0133,VALID,28,VALID,0.00585938,
2010-12-31, 01:19:04,VALID,915.346,VALID,0,VALID,92.9523,VALID,0,VALID,19.9923,VALID,28,VALID,0,
2010-12-31, 01:20:04,VALID,915.329,VALID,0,VALID,92.655,VALID,0,VALID,19.9548,VALID,28,VALID,0.208594,
2010-12-31, 01:21:04,VALID,915.308,VALID,0,VALID,92.8913,VALID,0,VALID,19.9548,VALID,28,VALID,0.277734,
2010-12-31, 01:22:04,VALID,915.307,VALID,0,VALID,93.3182,VALID,0,VALID,19.9563,VALID,28,VALID,0.580859,
2010-12-31, 01:23:04,VALID,915.28,VALID,0,VALID,93.4097,VALID,0,VALID,19.9353,VALID,28,VALID,0.59375,
2010-12-31, 01:24:04,VALID,915.261,VALID,0,VALID,93.4021,VALID,0,VALID,19.9158,VALID,28,VALID,0.659375,
2010-12-31, 01:25:04,VALID,915.242,VALID,0,VALID,93.1505,VALID,0,VALID,19.8573,VALID,28,VALID,0.307813,
2010-12-31, 01:26:04,VALID,915.239,VALID,0,VALID,93.2877,VALID,0,VALID,19.8183,VALID,28,VALID,0.301172,
2010-12-31, 01:27:04,VALID,915.241,VALID,0,VALID,93.7299,VALID,0,VALID,19.8408,VALID,28,VALID,0.505859,
2010-12-31, 01:28:04,VALID,915.229,VALID,0,VALID,94.2483,VALID,0.107441,VALID,19.8363,VALID,28,VALID,0.322266,
2010-12-31, 01:29:04,VALID,915.225,VALID,0,VALID,94.4313,VALID,0,VALID,19.8363,VALID,28,VALID,0.179688,
2010-12-31, 01:30:04,VALID,915.181,VALID,0,VALID,94.5913,VALID,0,VALID,19.8978,VALID,28,VALID,0.0488281,
2010-12-31, 01:31:04,VALID,915.165,VALID,0,VALID,94.6523,VALID,0,VALID,19.9173,VALID,28,VALID,0.21875,
2010-12-31, 01:32:04,VALID,915.155,VALID,0,VALID,94.1416,VALID,0,VALID,19.8993,VALID,28,VALID,0,
2010-12-31, 01:33:04,VALID,915.137,VALID,0,VALID,93.7756,VALID,0,VALID,19.8183,VALID,28,VALID,0.000390625,
2010-12-31, 01:34:04,VALID,915.142,VALID,0,VALID,93.5698,VALID,0,VALID,19.8408,VALID,28,VALID,0.459375,
2010-12-31, 01:35:04,VALID,915.115,VALID,0,VALID,94.0272,VALID,0,VALID,19.8408,VALID,28,VALID,0.417969,
2010-12-31, 01:36:04,VALID,915.087,VALID,0,VALID,94.2483,VALID,0,VALID,19.8198,VALID,28,VALID,0.0105469,
2010-12-31, 01:37:04,VALID,915.078,VALID,0,VALID,94.5685,VALID,0,VALID,19.8588,VALID,28,VALID,0,
2010-12-31, 01:38:04,VALID,915.075,VALID,0,VALID,94.7209,VALID,0,VALID,19.8993,VALID,28,VALID,0.461328,
2010-12-31, 01:39:04,VALID,915.048,VALID,0,VALID,94.7972,VALID,0,VALID,19.8978,VALID,28,VALID,0.366406,
2010-12-31, 01:40:04,VALID,915.047,VALID,0,VALID,94.881,VALID,0,VALID,19.8768,VALID,28,VALID,0.283203,
2010-12-31, 01:41:04,VALID,915.029,VALID,0,VALID,94.9649,VALID,0,VALID,19.9188,VALID,28,VALID,0.386719,
2010-12-31, 01:42:04,VALID,914.984,VALID,0,VALID,94.9039,VALID,0,VALID,19.8783,VALID,28,VALID,0.0804688,
2010-12-31, 01:43:04,VALID,914.96,VALID,0,VALID,94.8429,VALID,0,VALID,19.8798,VALID,28,VALID,0,
2010-12-31, 01:44:04,VALID,914.956,VALID,0,VALID,94.8429,VALID,0,VALID,19.8408,VALID,28,VALID,0.383984,
2010-12-31, 01:45:04,VALID,914.934,VALID,0,VALID,94.8887,VALID,0,VALID,19.8003,VALID,28,VALID,0.187109,
2010-12-31, 01:46:04,VALID,914.901,VALID,0,VALID,94.9573,VALID,0,VALID,19.8003,VALID,28,VALID,0.247656,
2010-12-31, 01:47:04,VALID,914.88,VALID,0,VALID,95.003,VALID,0,VALID,19.8213,VALID,28,VALID,0.445313,
2010-12-31, 01:48:04,VALID,914.839,VALID,0,VALID,95.0183,VALID,0,VALID,19.8003,VALID,28,VALID,0.00429688,
2010-12-31, 01:49:04,VALID,914.851,VALID,0,VALID,94.9649,VALID,0,VALID,19.8213,VALID,28,VALID,0,
2010-12-31, 01:50:04,VALID,914.834,VALID,0,VALID,94.8505,VALID,0,VALID,19.7808,VALID,28,VALID,0,
2010-12-31, 01:51:04,VALID,914.803,VALID,0,VALID,94.7819,VALID,0,VALID,19.7823,VALID,28,VALID,0,
2010-12-31, 01:52:04,VALID,914.745,VALID,0,VALID,94.7972,VALID,0,VALID,19.7808,VALID,28,VALID,0,
2010-12-31, 01:53:04,VALID,914.76,VALID,0,VALID,94.7972,VALID,0,VALID,19.8018,VALID,28,VALID,0,
2010-12-31, 01:54:04,VALID,914.764,VALID,0,VALID,94.7133,VALID,0,VALID,19.8003,VALID,28,VALID,0,
2010-12-31, 01:55:04,VALID,914.725,VALID,0,VALID,94.6523,VALID,0,VALID,19.8213,VALID,28,VALID,0.303125,
2010-12-31, 01:56:04,VALID,914.757,VALID,0,VALID,94.5304,VALID,0,VALID,19.8213,VALID,28,VALID,0.220703,
2010-12-31, 01:57:04,VALID,914.759,VALID,0,VALID,94.3245,VALID,0,VALID,19.8003,VALID,28,VALID,0.693359,
2010-12-31, 01:58:04,VALID,914.751,VALID,0,VALID,94.3855,VALID,0,VALID,19.8213,VALID,28,VALID,0.814844,
2010-12-31, 01:59:04,VALID,914.763,VALID,0,VALID,94.3779,VALID,0,VALID,19.7598,VALID,28,VALID,0.525781,
2010-12-31, 02:00:04,VALID,914.755,VALID,0,VALID,94.4846,VALID,0,VALID,19.7793,VALID,28,VALID,0.777734,
2010-12-31, 02:01:04,VALID,914.754,VALID,0,VALID,94.6981,VALID,0,VALID,19.7988,VALID,28,VALID,0.665234,
2010-12-31, 02:02:04,VALID,914.721,VALID,0,VALID,94.8429,VALID,0,VALID,19.8198,VALID,28,VALID,0.55,
2010-12-31, 02:03:04,VALID,914.712,VALID,0,VALID,94.8887,VALID,0,VALID,19.7793,VALID,28,VALID,0.361328,
2010-12-31, 02:04:04,VALID,914.726,VALID,0,VALID,94.9573,VALID,0,VALID,19.7988,VALID,28,VALID,0.367969,
2010-12-31, 02:05:04,VALID,914.712,VALID,0,VALID,94.9725,VALID,0,VALID,19.7793,VALID,28,VALID,0.242969,
2010-12-31, 02:06:04,VALID,914.666,VALID,0,VALID,94.9878,VALID,0,VALID,19.8003,VALID,28,VALID,0.128906,
2010-12-31, 02:07:04,VALID,914.698,VALID,0,VALID,94.9878,VALID,0,VALID,19.7988,VALID,28,VALID,0.0449219,
2010-12-31, 02:08:04,VALID,914.685,VALID,0,VALID,94.9496,VALID,0,VALID,19.8003,VALID,28,VALID,0,
2010-12-31, 02:09:04,VALID,914.649,VALID,0,VALID,94.7438,VALID,0,VALID,19.7988,VALID,28,VALID,0,
2010-12-31, 02:10:04,VALID,914.613,VALID,0,VALID,94.2254,VALID,0,VALID,19.7418,VALID,28,VALID,0,
2010-12-31, 02:11:04,VALID,914.603,VALID,0,VALID,94.3093,VALID,0,VALID,19.7418,VALID,28,VALID,0,
2010-12-31, 02:12:04,VALID,914.56,VALID,0,VALID,94.4236,VALID,0,VALID,19.7403,VALID,28,VALID,0,
2010-12-31, 02:13:04,VALID,914.576,VALID,0,VALID,94.477,VALID,0,VALID,19.7403,VALID,28,VALID,0,
2010-12-31, 02:14:04,VALID,914.559,VALID,0,VALID,94.4465,VALID,0,VALID,19.7403,VALID,28,VALID,0,
2010-12-31, 02:15:04,VALID,914.542,VALID,0,VALID,94.3245,VALID,0,VALID,19.7613,VALID,28,VALID,0,
2010-12-31, 02:16:04,VALID,914.536,VALID,0,VALID,93.5622,VALID,0.107441,VALID,19.6623,VALID,28,VALID,0,
2010-12-31, 02:17:04,VALID,914.509,VALID,0,VALID,93.5622,VALID,0,VALID,19.5843,VALID,28,VALID,0.651563,
2010-12-31, 02:18:04,VALID,914.458,VALID,0,VALID,94.2178,VALID,0,VALID,19.5648,VALID,28,VALID,0.743359,
2010-12-31, 02:19:04,VALID,914.457,VALID,0,VALID,94.6371,VALID,0,VALID,19.5273,VALID,28,VALID,0.596094,
2010-12-31, 02:20:04,VALID,914.447,VALID,0,VALID,94.8505,VALID,0.107441,VALID,19.4673,VALID,28,VALID,0.605469,
2010-12-31, 02:21:04,VALID,914.438,VALID,0,VALID,94.9954,VALID,0.107441,VALID,19.4283,VALID,28,VALID,0.428516,
2010-12-31, 02:22:04,VALID,914.472,VALID,0,VALID,95.1326,VALID,0.107441,VALID,19.4298,VALID,28,VALID,0.332031,
2010-12-31, 02:23:04,VALID,914.457,VALID,0,VALID,95.2088,VALID,0.107441,VALID,19.4088,VALID,28,VALID,0.417188,
2010-12-31, 02:24:04,VALID,914.45,VALID,0,VALID,95.2317,VALID,0.107441,VALID,19.4088,VALID,28,VALID,0.460156,
2010-12-31, 02:25:04,VALID,914.455,VALID,0,VALID,95.1707,VALID,0.107441,VALID,19.3893,VALID,28,VALID,0.283984,
2010-12-31, 02:26:04,VALID,914.465,VALID,0,VALID,95.1402,VALID,0,VALID,19.3908,VALID,28,VALID,0.00820312,
2010-12-31, 02:27:04,VALID,914.48,VALID,0,VALID,95.2622,VALID,0.107441,VALID,19.4103,VALID,28,VALID,0.724609,
2010-12-31, 02:28:04,VALID,914.478,VALID,0,VALID,95.3537,VALID,0,VALID,19.3908,VALID,28,VALID,0.308203,
2010-12-31, 02:29:04,VALID,914.506,VALID,0,VALID,95.4223,VALID,0.107441,VALID,19.3698,VALID,28,VALID,0.721875,
2010-12-31, 02:30:04,VALID,914.482,VALID,0,VALID,95.5519,VALID,0,VALID,19.3698,VALID,28,VALID,0.699219,
2010-12-31, 02:31:04,VALID,914.533,VALID,0,VALID,95.6891,VALID,0.107441,VALID,19.3908,VALID,28,VALID,0.356641,
2010-12-31, 02:32:04,VALID,914.522,VALID,0,VALID,95.8111,VALID,0.107441,VALID,19.3698,VALID,28,VALID,0.471094,
2010-12-31, 02:33:04,VALID,914.53,VALID,0,VALID,95.9026,VALID,0,VALID,19.3713,VALID,28,VALID,0.480859,
2010-12-31, 02:34:04,VALID,914.521,VALID,0,VALID,95.9559,VALID,0,VALID,19.3713,VALID,28,VALID,0.210938,
2010-12-31, 02:35:04,VALID,914.513,VALID,0,VALID,96.0474,VALID,0.107441,VALID,19.3503,VALID,28,VALID,0.448828,
2010-12-31, 02:36:04,VALID,914.48,VALID,0,VALID,96.055,VALID,0,VALID,19.3503,VALID,28,VALID,0.297656,
2010-12-31, 02:37:04,VALID,914.478,VALID,0,VALID,95.9941,VALID,0.107441,VALID,19.2723,VALID,28,VALID,0.283203,
2010-12-31, 02:38:04,VALID,914.493,VALID,0,VALID,96.0779,VALID,0.107441,VALID,19.2933,VALID,28,VALID,0.472266,
2010-12-31, 02:39:04,VALID,914.487,VALID,0,VALID,96.0627,VALID,0.107441,VALID,19.2334,VALID,28,VALID,0.41875,
2010-12-31, 02:40:04,VALID,914.467,VALID,0,VALID,95.9331,VALID,0,VALID,19.1554,VALID,28,VALID,0.275391,
2010-12-31, 02:41:04,VALID,914.492,VALID,0,VALID,96.0703,VALID,0.107441,VALID,19.1359,VALID,28,VALID,0,
2010-12-31, 02:42:04,VALID,914.48,VALID,0,VALID,96.1541,VALID,0.107441,VALID,19.1373,VALID,28,VALID,0.0394531,
2010-12-31, 02:43:04,VALID,914.48,VALID,0,VALID,96.2304,VALID,0,VALID,19.1359,VALID,28,VALID,0.384375,
2010-12-31, 02:44:04,VALID,914.465,VALID,0,VALID,96.2761,VALID,0.107441,VALID,19.1359,VALID,28,VALID,0.558984,
2010-12-31, 02:45:04,VALID,914.413,VALID,0,VALID,96.3447,VALID,0,VALID,19.1568,VALID,28,VALID,0.596484,
2010-12-31, 02:46:04,VALID,914.415,VALID,0,VALID,96.4057,VALID,0,VALID,19.1568,VALID,28,VALID,0.360156,
2010-12-31, 02:47:04,VALID,914.403,VALID,0,VALID,96.4133,VALID,0,VALID,19.1568,VALID,28,VALID,0.540234,
2010-12-31, 02:48:04,VALID,914.404,VALID,0,VALID,96.3219,VALID,0,VALID,19.1178,VALID,28,VALID,0.536328,
2010-12-31, 02:49:04,VALID,914.372,VALID,0,VALID,96.1313,VALID,0,VALID,19.0203,VALID,28,VALID,0.533203,
2010-12-31, 02:50:04,VALID,914.387,VALID,0,VALID,96.3142,VALID,0,VALID,19.0413,VALID,28,VALID,0.593359,
2010-12-31, 02:51:04,VALID,914.405,VALID,0,VALID,96.3829,VALID,0,VALID,19.0008,VALID,28,VALID,0.566406,
2010-12-31, 02:52:04,VALID,914.404,VALID,0,VALID,96.5429,VALID,0,VALID,19.0788,VALID,28,VALID,0.592578,
2010-12-31, 02:53:04,VALID,914.402,VALID,0,VALID,96.4438,VALID,0,VALID,19.0398,VALID,28,VALID,0.694922,
2010-12-31, 02:54:04,VALID,914.395,VALID,0,VALID,96.4438,VALID,0,VALID,19.0203,VALID,28,VALID,0.662891,
2010-12-31, 02:55:04,VALID,914.377,VALID,0,VALID,96.4667,VALID,0,VALID,19.0023,VALID,28,VALID,0.601563,
2010-12-31, 02:56:04,VALID,914.409,VALID,0,VALID,96.6344,VALID,0,VALID,19.0608,VALID,28,VALID,0.597656,
2010-12-31, 02:57:04,VALID,914.408,VALID,0,VALID,96.6878,VALID,0,VALID,19.0998,VALID,28,VALID,0.644531,
2010-12-31, 02:58:04,VALID,914.38,VALID,0,VALID,96.764,VALID,0,VALID,19.1568,VALID,28,VALID,0.323438,
2010-12-31, 02:59:04,VALID,914.395,VALID,0,VALID,96.7183,VALID,0,VALID,19.1568,VALID,28,VALID,0.202344,
2010-12-31, 03:00:04,VALID,914.357,VALID,0,VALID,96.6573,VALID,0.107441,VALID,19.1359,VALID,28,VALID,0.21875,
2010-12-31, 03:01:04,VALID,914.357,VALID,0,VALID,96.6268,VALID,0,VALID,19.1568,VALID,28,VALID,0.316016,
2010-12-31, 03:02:04,VALID,914.31,VALID,0,VALID,96.6344,VALID,0.107441,VALID,19.1554,VALID,28,VALID,0.380078,
2010-12-31, 03:03:04,VALID,914.325,VALID,0,VALID,96.5811,VALID,0,VALID,19.1359,VALID,28,VALID,0.537891,
2010-12-31, 03:04:04,VALID,914.323,VALID,0,VALID,96.6268,VALID,0,VALID,19.1554,VALID,28,VALID,0.597656,
2010-12-31, 03:05:04,VALID,914.342,VALID,0,VALID,96.6268,VALID,0,VALID,19.1749,VALID,28,VALID,0.792578,
2010-12-31, 03:06:04,VALID,914.375,VALID,0,VALID,96.6192,VALID,0,VALID,19.1749,VALID,28,VALID,0.478125,
2010-12-31, 03:07:04,VALID,914.39,VALID,0,VALID,96.5887,VALID,0,VALID,19.1958,VALID,28,VALID,0.362891,
2010-12-31, 03:08:04,VALID,914.391,VALID,0,VALID,96.4896,VALID,0,VALID,19.1763,VALID,28,VALID,0.508594,
2010-12-31, 03:09:04,VALID,914.401,VALID,0,VALID,96.4515,VALID,0,VALID,19.1763,VALID,28,VALID,0.385547,
2010-12-31, 03:10:04,VALID,914.37,VALID,0,VALID,96.4133,VALID,0,VALID,19.1554,VALID,28,VALID,0.428125,
2010-12-31, 03:11:04,VALID,914.35,VALID,0,VALID,96.3752,VALID,0,VALID,19.1749,VALID,28,VALID,0.525,
2010-12-31, 03:12:04,VALID,914.337,VALID,0,VALID,96.3142,VALID,0.107441,VALID,19.1958,VALID,28,VALID,0.588281,
2010-12-31, 03:13:04,VALID,914.331,VALID,0,VALID,96.2228,VALID,0,VALID,19.1763,VALID,28,VALID,0.782812,
2010-12-31, 03:14:04,VALID,914.308,VALID,0,VALID,96.1541,VALID,0,VALID,19.1958,VALID,28,VALID,0.792578,
2010-12-31, 03:15:04,VALID,914.312,VALID,0,VALID,96.1084,VALID,0,VALID,19.1958,VALID,28,VALID,0.733984,
2010-12-31, 03:16:04,VALID,914.283,VALID,0,VALID,96.0855,VALID,0.107441,VALID,19.1958,VALID,28,VALID,0.606641,
2010-12-31, 03:17:04,VALID,914.304,VALID,0,VALID,96.0169,VALID,0.107441,VALID,19.1763,VALID,28,VALID,0.210547,
2010-12-31, 03:18:04,VALID,914.257,VALID,0,VALID,95.895,VALID,0,VALID,19.1568,VALID,28,VALID,0.310156,
2010-12-31, 03:19:04,VALID,914.204,VALID,0,VALID,95.9026,VALID,0,VALID,19.1958,VALID,28,VALID,0.685547,
2010-12-31, 03:20:04,VALID,914.172,VALID,0,VALID,96.0474,VALID,0,VALID,19.2348,VALID,28,VALID,0.858984,
2010-12-31, 03:21:04,VALID,914.159,VALID,0,VALID,96.0398,VALID,0,VALID,19.1763,VALID,28,VALID,0.699609,
2010-12-31, 03:22:04,VALID,914.149,VALID,0,VALID,96.0169,VALID,0,VALID,19.1568,VALID,28,VALID,0.685547,
2010-12-31, 03:23:04,VALID,914.162,VALID,0,VALID,96.1694,VALID,0,VALID,19.1568,VALID,28,VALID,0.839063,
2010-12-31, 03:24:04,VALID,914.144,VALID,0,VALID,96.2456,VALID,0,VALID,19.1763,VALID,28,VALID,0.846094,
2010-12-31, 03:25:04,VALID,914.128,VALID,0,VALID,96.0932,VALID,0,VALID,19.1178,VALID,28,VALID,0.505469,
2010-12-31, 03:26:04,VALID,914.122,VALID,0,VALID,95.834,VALID,0,VALID,19.0023,VALID,28,VALID,0.376953,
2010-12-31, 03:27:04,VALID,914.094,VALID,0,VALID,95.9712,VALID,0,VALID,19.0008,VALID,28,VALID,0.45,
2010-12-31, 03:28:04,VALID,914.099,VALID,0,VALID,96.0093,VALID,0,VALID,18.9814,VALID,28,VALID,0.397266,
2010-12-31, 03:29:04,VALID,914.092,VALID,0,VALID,96.177,VALID,0.107441,VALID,19.0008,VALID,28,VALID,0.359375,
2010-12-31, 03:30:04,VALID,914.09,VALID,0,VALID,96.2685,VALID,0,VALID,19.0413,VALID,28,VALID,0,
2010-12-31, 03:31:04,VALID,914.058,VALID,0,VALID,96.2075,VALID,0,VALID,19.0008,VALID,28,VALID,0,
2010-12-31, 03:32:04,VALID,914.091,VALID,0,VALID,96.177,VALID,0,VALID,19.0008,VALID,28,VALID,0,
2010-12-31, 03:33:04,VALID,914.082,VALID,0,VALID,96.1465,VALID,0,VALID,18.9814,VALID,28,VALID,0.216797,
2010-12-31, 03:34:04,VALID,914.069,VALID,0,VALID,96.1465,VALID,0,VALID,18.9814,VALID,28,VALID,0.30625,
2010-12-31, 03:35:04,VALID,914.082,VALID,0,VALID,96.1465,VALID,0,VALID,18.9619,VALID,28,VALID,0.294141,
2010-12-31, 03:36:04,VALID,914.082,VALID,0,VALID,96.1389,VALID,0,VALID,18.9229,VALID,28,VALID,0.152344,
2010-12-31, 03:37:04,VALID,914.082,VALID,0,VALID,96.238,VALID,0,VALID,18.9424,VALID,28,VALID,0.150391,
2010-12-31, 03:38:04,VALID,914.09,VALID,0,VALID,96.3295,VALID,0,VALID,18.9619,VALID,28,VALID,0.278516,
2010-12-31, 03:39:04,VALID,914.101,VALID,0,VALID,96.2914,VALID,0,VALID,18.9619,VALID,28,VALID,0.276953,
2010-12-31, 03:40:04,VALID,914.077,VALID,0,VALID,96.3676,VALID,0,VALID,18.9619,VALID,28,VALID,0.351172,
2010-12-31, 03:41:04,VALID,914.077,VALID,0,VALID,96.4743,VALID,0,VALID,19.0203,VALID,28,VALID,0.419922,
2010-12-31, 03:42:04,VALID,914.06,VALID,0,VALID,96.5353,VALID,0,VALID,19.0593,VALID,28,VALID,0.425,
2010-12-31, 03:43:04,VALID,914.093,VALID,0,VALID,96.5506,VALID,0,VALID,19.0788,VALID,28,VALID,0.385938,
2010-12-31, 03:44:04,VALID,914.125,VALID,0,VALID,96.5201,VALID,0,VALID,19.0788,VALID,28,VALID,0.373437,
2010-12-31, 03:45:04,VALID,914.09,VALID,0,VALID,96.5201,VALID,0,VALID,19.0788,VALID,28,VALID,0.295703,
2010-12-31, 03:46:04,VALID,914.121,VALID,0,VALID,96.5201,VALID,0,VALID,19.0983,VALID,28,VALID,0.275,
2010-12-31, 03:47:04,VALID,914.082,VALID,0,VALID,96.5124,VALID,0,VALID,19.1178,VALID,28,VALID,0.225781,